Location: Unspecified
(42.9300°N, 71.1866°W)
Time: 21:03:53
(UTC-04:00)

Genesis I - Visible Passes

Search period start: 31 October 2014 00:00
Search period end: 09 November 2014 23:00
Orbit: 499 x 563 km, 64.5° (Epoch: 31 October)

Date Brightness Start Highest point End Pass type
(mag) Time Alt. Az. Time Alt. Az. Time Alt. Az.
31 Oct 3.5 19:11:29 10° NNW 19:15:34 50° NE 19:16:21 44° E visible
31 Oct 6.3 20:50:29 10° WNW 20:51:42 14° W 20:51:42 14° W visible
01 Nov 3.4 19:00:30 10° NNW 19:04:39 57° NE 19:06:38 28° ESE visible
01 Nov 6.2 20:39:49 10° WNW 20:42:00 15° WSW 20:42:00 15° WSW visible
02 Nov 3.3 17:49:32 10° NNW 17:53:42 65° NE 17:57:14 14° SE visible
02 Nov 6.3 19:29:15 10° W 19:31:11 13° WSW 19:32:37 11° SW visible
03 Nov 3.3 17:38:33 10° NNW 17:42:45 75° NE 17:46:53 10° SE visible
03 Nov 6.5 19:18:51 10° W 19:20:09 11° WSW 19:21:26 10° SW visible
04 Nov 3.3 17:27:34 10° NNW 17:31:46 85° NE 17:35:55 10° SE visible
05 Nov 3.4 17:16:34 10° NW 17:20:46 85° WSW 17:24:55 10° SSE visible
06 Nov 3.6 17:05:34 10° NW 17:09:45 75° WSW 17:13:53 10° SSE visible
07 Nov 3.9 16:54:35 10° NW 16:58:44 65° WSW 17:02:49 10° SSE visible
